C/2017 B3 ( LINEAR )

Japanese version
Home page
Updated on July 13, 2019

---------------------------------------------------------------------

* Profile

Discovery Date January 26, 2017
Magnitude 19.2 mag
Discoverer LINEAR survey (Space Surveillance Telescope, Atom Peak, White Sands Missile Range, NM, USA)

* Pictures

* Orbital Elements

Epoch 2019 Feb. 6.0 TT = JDT 2458520.5
T 2019 Feb. 2.50321 TT                                  MPCW
q   3.9211599            (2000.0)            P               Q
z  -0.0005397      Peri.  284.74955     +0.27591258     +0.96068896
 +/-0.0000008      Node     2.17727     -0.19811251     +0.08820116
e   1.0021164      Incl.   54.17877     -0.94054435     +0.26324374
From 290 observations 2016 Apr. 1-2019 Mar. 27, mean residual 0".4.

* Finding Charts

* Magnitudes Graph

        m1 = 5.7 + 5 log d + 10.0 log r

---------------------------------------------------------------------

The orbital elements are published on M.P.E.C. 2019-J142.
The charts are made with StellaNavigator Ver.10 (AstroArts).
The magnitudes graphs are made with Comet for Windows.

---------------------------------------------------------------------

Copyright(C) Seiichi Yoshida (comet@aerith.net). All rights reserved.